GOKTURK 1A (41875 NORAD) Tracking and Keplerian Element Data

This shows tracking and keplerian element data for the satellite.

Feedback or suggestion? Click here.




ElementValue
Catalog41875
NameGOKTURK 1A
Epoch Orbit8677
Epoch Day203.19064124
Epoch Year2018
RAAN97.2686
Inclination98.1143
Eccentricity0.0001434
Argument of Perigee77.9658
Mean Anonmoly282.171
Mean Motion14.62791421
Decay Rate2.2E-07
L11 41875U 16073A 18203.19064124 .00000022 00000-0 13496-4 0 9994
L22 41875 98.1143 97.2686 0001434 77.9658 282.1710 14.62791421 86771

Live tracking and technical data element details for GOKTURK 1A (NORAD 41875). GOKTURK 1A can be tracked NOW for your location showing map with azimuth and elevation plus other details from your city location.

Track the satellite on the map from your city or location and see movement details for azimuth, elevation, latitude, longitude, range, height, and movement on the map or in text.







IsCatalogInMostPopularTable: catalog: 41875, numindb: 89
Update: records affected: 1



GetName: 41875 GOKTURK 1A

Hit Count: updated at: Mon, 23 Jul 2018 07:46:57 GMT